Location: Poughquag
(41.6090°N, 73.6820°W)
Time: 10:01:46
(UTC-04:00)

Vanguard 2 Rocket - All Passes

Search period start: 14 October 2019 00:00
Search period end: 24 October 2019 00:00
Orbit: 554 x 3326 km, 32.9° (Epoch: 13 October)

Date Brightness Start Highest point End Pass type
(mag) Time Alt. Az. Time Alt. Az. Time Alt. Az.
14 Oct - 07:43:04 10° SE 07:47:01 11° SE 07:51:01 10° ESE daylight
14 Oct - 09:45:27 10° SSW 10:01:51 35° SE 10:17:27 10° E daylight
14 Oct - 11:59:01 10° SW 12:18:32 56° SSE 12:33:37 10° E daylight
14 Oct - 14:16:35 10° W 14:35:22 62° S 14:47:19 10° ESE daylight
14 Oct - 16:35:55 10° W 16:50:14 42° SSW 16:58:58 10° SE daylight
14 Oct - 18:58:19 10° WSW 19:02:13 12° SW 19:05:30 10° SSW visible
15 Oct - 08:46:33 10° S 09:00:39 27° SE 09:15:11 10° E daylight
15 Oct - 10:57:57 10° SW 11:16:46 51° SSE 11:33:05 10° E daylight
15 Oct - 13:14:15 10° WSW 13:33:58 63° S 13:47:42 10° ESE daylight
15 Oct - 15:33:05 10° W 15:49:57 52° SSW 16:00:19 10° SE daylight
15 Oct - 17:53:32 10° W 18:03:04 23° SW 18:09:44 10° S daylight
16 Oct - 07:49:08 10° S 07:59:50 19° SE 08:11:20 10° E daylight
16 Oct - 09:57:36 10° SW 10:15:05 43° SSE 10:32:01 10° E daylight
16 Oct - 12:12:21 10° WSW 12:32:14 62° S 12:47:41 10° E daylight
16 Oct - 14:30:23 10° W 14:49:07 59° SSW 15:01:13 10° ESE daylight
16 Oct - 16:50:07 10° W 17:03:31 34° SW 17:12:09 10° SSE daylight
17 Oct - 06:56:19 10° SE 06:59:25 11° SE 07:02:37 10° ESE daylight
17 Oct - 08:58:04 10° SSW 09:13:40 35° SE 09:30:13 10° E daylight
17 Oct - 11:11:01 10° SW 11:30:19 58° SSE 11:47:13 10° E daylight
17 Oct - 13:27:57 10° W 13:47:45 63° S 14:01:40 10° ESE daylight
17 Oct - 15:47:03 10° W 16:03:25 44° SSW 16:13:48 10° SE daylight
17 Oct - 18:09:14 10° W 18:15:57 15° SW 18:21:14 10° SSW daylight
18 Oct - 07:59:30 10° S 08:12:39 27° SE 08:27:29 10° E daylight
18 Oct - 10:10:22 10° SW 10:28:26 52° SSE 10:46:15 10° E daylight
18 Oct - 12:25:56 10° WSW 12:45:59 65° S 13:01:41 10° ESE daylight
18 Oct - 14:44:16 10° W 15:02:43 54° SSW 15:14:53 10° SE daylight
18 Oct - 17:04:43 10° W 17:16:31 26° SW 17:24:45 10° S daylight
19 Oct - 07:02:25 10° SSE 07:12:06 18° SE 07:23:09 10° E daylight
19 Oct - 09:10:24 10° SW 09:26:47 44° SSE 09:44:42 10° E daylight
19 Oct - 11:24:27 10° WSW 11:43:58 63° S 12:01:15 10° E daylight
19 Oct - 13:41:47 10° W 14:01:27 61° SSW 14:15:29 10° ESE daylight
19 Oct - 16:01:14 10° W 16:16:36 36° SW 16:26:55 10° SSE daylight
20 Oct - 08:11:14 10° SSW 08:25:33 35° SE 08:42:27 10° E daylight
20 Oct - 10:23:33 10° SW 10:41:55 59° SSE 11:00:20 10° E daylight
20 Oct - 12:39:42 10° W 12:59:43 65° S 13:15:36 10° ESE daylight
20 Oct - 14:58:15 10° W 15:16:07 47° SSW 15:28:18 10° SE daylight
20 Oct - 17:20:10 10° W 17:29:19 18° SW 17:36:24 10° SSW daylight
21 Oct - 07:13:01 10° S 07:24:48 26° SE 07:39:14 10° E daylight
21 Oct - 09:23:20 10° SW 09:40:03 52° SSE 09:58:53 10° E daylight
21 Oct - 11:38:07 10° WSW 11:57:41 65° S 12:15:12 10° ESE daylight
21 Oct - 13:55:41 10° W 14:15:01 55° SSW 14:29:07 10° SE daylight
21 Oct - 16:15:47 10° W 16:29:34 28° SW 16:39:27 10° S daylight
22 Oct - 06:16:19 10° SSE 06:24:35 17° SE 06:34:26 10° E visible
22 Oct - 08:23:45 10° SSW 08:38:35 44° SSE 08:56:51 10° E daylight
22 Oct - 10:37:04 10° WSW 10:55:32 63° S 11:14:19 10° E daylight
22 Oct - 12:53:34 10° W 13:13:24 62° SSW 13:29:22 10° ESE daylight
22 Oct - 15:12:25 10° W 15:29:16 38° SW 15:41:19 10° SSE daylight
22 Oct - 17:38:31 10° WSW 17:41:58 11° SW 17:45:06 10° SW daylight
23 Oct - 07:24:56 10° SSW 07:37:38 34° SE 07:54:09 10° E daylight
23 Oct - 09:36:38 10° WSW 09:53:30 59° SSE 10:12:54 10° E daylight
23 Oct - 11:51:56 10° W 12:11:24 65° S 12:29:03 10° ESE daylight
23 Oct - 14:09:42 10° W 14:28:23 48° SSW 14:42:26 10° SE daylight
23 Oct - 16:31:08 10° W 16:42:19 20° SW 16:51:04 10° S daylight
